Aérodrome :
LOGIN :

S'inscrire | Disclaimer

   EN    FR    IT 

 










Légende :    VFR   VFR Marginal   IFR   IFR Intensif   IFR Très Intensif
Visi : 
Plafond : 
>= 8 km
>= 3000ft
5 à 8 km
1000 à 3000 ft
1500m à 5 km
500 à 1000 ft
800 à 1500m
200 à 500 ft
< 800m
< 200 ft
Symboles :   Orages  Brouillard  Fortes neiges  Fortes précipitations  Vent > 20 kt
SIGMETs :   Divers  Orages  Givrage  Turbulence  Onde Orograph.  Cendres Volcan.







- Altitude de l'aérodrome : 142 ft
- Code IATA : FLR


LIRQ - Firenze Amerigo Vespucci

DERNIER METAR :
  • 181750Z 36010G20KT 320V050 CAVOK 21/13 Q1013

METARs EXPIRÉS :
  • 181720Z VRB04G14KT CAVOK 21/13 Q1013
  • 181650Z 03012KT 360V060 CAVOK 22/13 Q1013
  • 181620Z 04015KT CAVOK 22/13 Q1012
  • 181550Z 04015G25KT CAVOK 23/12 Q1012
  • 181520Z 03016KT CAVOK 24/13 Q1012

TAF AMD TAF LIRQ
Valide du 18 à 18h jusqu'au 19 à 18h UTC


181806Z 1818/1918 04015KT CAVOK
BECMG 1820/1822 VRB05KT
Pas de NOTAMs connus pour ce terrain.



MET'MAP, la Météo Aéronautique d'un coup d'oeil ! - Copyright ORBIFLY Décembre 2007 - Disclaimer

ORBIFLY MET'MAP TEAM :

Programmation & Développement : Alexandra Zaïnal
Conception & Développement : Baudouin d'Aumeries
Co-Programmation & Développement : Marc-Olivier Méhu
Soutien technique & logistique : Manuel Goepfert

Contact : metmap@orbifly.com




SOURCES & CREDITS :

   NOAA